M I D A S
Marine Information and Data Acquisition System
Tripno 1721 of the Zeeleeuw from 2009-01-16 07:30:54 to 2009-01-16 12:52:50
Back to CruiseResearch ActivitiesStationsMapUnderway DataData graphs

EquipmentUnitsComments
TimeDGPSUTC
LatitudeDGPSDM.mWGS84
LongitudeDGPSDM.mWGS84
SpeedMeteo Stationm/sRelative wind speed
DirectionMeteo StationdegRelative wind direction
TemperatureMeteo Stationdeg CelciusAir temperature
PressureMeteo StationPaAtmospheric pressure
HumidityMeteo Station%Relative humidity
Missing or incorrect values are displayed as -999
Metereological data collected by the RV Zeeleeuw from 2009-01-16 07:31:05 to 2009-01-16 13:02:10
                                                                                    Next 1000 lines
Time Latitude Longitude Speed Direction Temperature Pressure Humidity
2009-01-16 07:31:15 51°13.663 2°55.957 -999 -999 -999 -999 -999
2009-01-16 07:31:21 51°13.663 2°55.956 -999 -999 -999 -999 -999
2009-01-16 07:31:25 51°13.664 2°55.955 -999 -999 -999 -999 -999
2009-01-16 07:31:30 51°13.665 2°55.952 -999 -999 -999 -999 -999
2009-01-16 07:31:35 51°13.665 2°55.95 -999 -999 -999 -999 -999
2009-01-16 07:31:41 51°13.667 2°55.947 -999 -999 -999 -999 -999
2009-01-16 07:31:45 51°13.668 2°55.944 -999 -999 -999 -999 -999
2009-01-16 07:31:51 51°13.669 2°55.94 -999 -999 -999 -999 -999
2009-01-16 07:31:56 51°13.671 2°55.936 -999 -999 -999 -999 -999
2009-01-16 07:32:01 51°13.672 2°55.932 -999 -999 -999 -999 -999
2009-01-16 07:32:06 51°13.674 2°55.928 -999 -999 -999 -999 -999
2009-01-16 07:32:10 51°13.675 2°55.924 -999 -999 -999 -999 -999
2009-01-16 07:32:16 51°13.677 2°55.918 -999 -999 -999 -999 -999
2009-01-16 07:32:21 51°13.679 2°55.913 -999 -999 -999 -999 -999
2009-01-16 07:32:26 51°13.68 2°55.908 -999 -999 -999 -999 -999
2009-01-16 07:32:31 51°13.681 2°55.902 -999 -999 -999 -999 -999
2009-01-16 07:32:36 51°13.682 2°55.897 -999 -999 -999 -999 -999
2009-01-16 07:32:41 51°13.683 2°55.891 -999 -999 -999 -999 -999
2009-01-16 07:32:45 51°13.684 2°55.886 -999 -999 -999 -999 -999
2009-01-16 07:32:51 51°13.685 2°55.879 -999 -999 -999 -999 -999
2009-01-16 07:32:56 51°13.686 2°55.872 -999 -999 -999 -999 -999
2009-01-16 07:33:01 51°13.687 2°55.866 -999 -999 -999 -999 -999
2009-01-16 07:33:05 51°13.688 2°55.861 -999 -999 -999 -999 -999
2009-01-16 07:33:10 51°13.688 2°55.854 -999 -999 -999 -999 -999
2009-01-16 07:33:16 51°13.689 2°55.846 -999 -999 -999 -999 -999
2009-01-16 07:33:21 51°13.689 2°55.84 -999 -999 -999 -999 -999
2009-01-16 07:33:25 51°13.689 2°55.835 -999 -999 -999 -999 -999
2009-01-16 07:33:30 51°13.689 2°55.829 -999 -999 -999 -999 -999
2009-01-16 07:33:36 51°13.69 2°55.821 -999 -999 -999 -999 -999
2009-01-16 07:33:41 51°13.69 2°55.816 -999 -999 -999 -999 -999
2009-01-16 07:33:45 51°13.69 2°55.811 -999 -999 -999 -999 -999
2009-01-16 07:33:50 51°13.689 2°55.805 -999 -999 -999 -999 -999
2009-01-16 07:33:56 51°13.689 2°55.799 -999 -999 -999 -999 -999
2009-01-16 07:34:01 51°13.689 2°55.793 -999 -999 -999 -999 -999
2009-01-16 07:34:05 51°13.689 2°55.789 -999 -999 -999 -999 -999
2009-01-16 07:34:10 51°13.689 2°55.784 -999 -999 -999 -999 -999
2009-01-16 07:34:15 51°13.689 2°55.781 -999 -999 -999 -999 -999
2009-01-16 07:34:20 51°13.689 2°55.779 -999 -999 -999 -999 -999
2009-01-16 07:34:25 51°13.69 2°55.778 -999 -999 -999 -999 -999
2009-01-16 07:34:30 51°13.691 2°55.778 -999 -999 -999 -999 -999
2009-01-16 07:34:35 51°13.693 2°55.779 -999 -999 -999 -999 -999
2009-01-16 07:34:41 51°13.695 2°55.781 -999 -999 -999 -999 -999
2009-01-16 07:34:45 51°13.698 2°55.782 -999 -999 -999 -999 -999
2009-01-16 07:34:50 51°13.701 2°55.784 -999 -999 -999 -999 -999
2009-01-16 07:34:56 51°13.706 2°55.785 -999 -999 -999 -999 -999
2009-01-16 07:35:01 51°13.71 2°55.785 -999 -999 -999 -999 -999
2009-01-16 07:35:05 51°13.713 2°55.784 -999 -999 -999 -999 -999
2009-01-16 07:35:10 51°13.717 2°55.784 -999 -999 -999 -999 -999
2009-01-16 07:35:15 51°13.721 2°55.782 -999 -999 -999 -999 -999
2009-01-16 07:35:21 51°13.726 2°55.779 -999 -999 -999 -999 -999
2009-01-16 07:35:25 51°13.729 2°55.777 -999 -999 -999 -999 -999
2009-01-16 07:35:30 51°13.733 2°55.774 -999 -999 -999 -999 -999
2009-01-16 07:35:36 51°13.737 2°55.769 -999 -999 -999 -999 -999
2009-01-16 07:35:41 51°13.741 2°55.764 -999 -999 -999 -999 -999
2009-01-16 07:35:45 51°13.744 2°55.76 -999 -999 -999 -999 -999
2009-01-16 07:35:50 51°13.748 2°55.754 -999 -999 -999 -999 -999
2009-01-16 07:35:56 51°13.753 2°55.746 -999 -999 -999 -999 -999
2009-01-16 07:36:01 51°13.757 2°55.739 -999 -999 -999 -999 -999
2009-01-16 07:36:05 51°13.76 2°55.733 -999 -999 -999 -999 -999
2009-01-16 07:36:10 51°13.765 2°55.725 -999 -999 -999 -999 -999
2009-01-16 07:36:15 51°13.77 2°55.717 -999 -999 -999 -999 -999
2009-01-16 07:36:21 51°13.775 2°55.707 -999 -999 -999 -999 -999
2009-01-16 07:36:25 51°13.779 2°55.7 -999 -999 -999 -999 -999
2009-01-16 07:36:30 51°13.785 2°55.691 -999 -999 -999 -999 -999
2009-01-16 07:36:35 51°13.79 2°55.683 -999 -999 -999 -999 -999
2009-01-16 07:36:41 51°13.797 2°55.672 -999 -999 -999 -999 -999
2009-01-16 07:36:45 51°13.802 2°55.666 -999 -999 -999 -999 -999
2009-01-16 07:36:50 51°13.808 2°55.658 -999 -999 -999 -999 -999
2009-01-16 07:36:55 51°13.814 2°55.65 -999 -999 -999 -999 -999
2009-01-16 07:37:01 51°13.823 2°55.641 -999 -999 -999 -999 -999
2009-01-16 07:37:05 51°13.828 2°55.636 -999 -999 -999 -999 -999
2009-01-16 07:37:10 51°13.836 2°55.629 -999 -999 -999 -999 -999
2009-01-16 07:37:15 51°13.843 2°55.623 -999 -999 -999 -999 -999
2009-01-16 07:37:21 51°13.852 2°55.616 -999 -999 -999 -999 -999
2009-01-16 07:37:25 51°13.858 2°55.611 -999 -999 -999 -999 -999
2009-01-16 07:37:30 51°13.866 2°55.605 -999 -999 -999 -999 -999
2009-01-16 07:37:35 51°13.874 2°55.599 -999 -999 -999 -999 -999
2009-01-16 07:37:41 51°13.883 2°55.591 -999 -999 -999 -999 -999
2009-01-16 07:37:45 51°13.889 2°55.586 -999 -999 -999 -999 -999
2009-01-16 07:37:50 51°13.897 2°55.58 -999 -999 -999 -999 -999
2009-01-16 07:37:56 51°13.906 2°55.572 -999 -999 -999 -999 -999
2009-01-16 07:38:01 51°13.914 2°55.566 -999 -999 -999 -999 -999
2009-01-16 07:38:05 51°13.921 2°55.561 -999 -999 -999 -999 -999
2009-01-16 07:38:10 51°13.929 2°55.554 -999 -999 -999 -999 -999
2009-01-16 07:38:15 51°13.937 2°55.548 -999 -999 -999 -999 -999
2009-01-16 07:38:21 51°13.947 2°55.54 -999 -999 -999 -999 -999
2009-01-16 07:38:25 51°13.954 2°55.535 -999 -999 -999 -999 -999
2009-01-16 07:38:30 51°13.962 2°55.528 -999 -999 -999 -999 -999
2009-01-16 07:38:35 51°13.97 2°55.522 -999 -999 -999 -999 -999
2009-01-16 07:38:41 51°13.98 2°55.514 -999 -999 -999 -999 -999
2009-01-16 07:38:45 51°13.987 2°55.509 -999 -999 -999 -999 -999
2009-01-16 07:38:50 51°13.996 2°55.502 -999 -999 -999 -999 -999
2009-01-16 07:38:55 51°14.004 2°55.496 -999 -999 -999 -999 -999
2009-01-16 07:39:00 51°14.013 2°55.489 -999 -999 -999 -999 -999
2009-01-16 07:39:05 51°14.021 2°55.483 -999 -999 -999 -999 -999
2009-01-16 07:39:10 51°14.03 2°55.476 -999 -999 -999 -999 -999
2009-01-16 07:39:15 51°14.039 2°55.47 -999 -999 -999 -999 -999
2009-01-16 07:39:21 51°14.049 2°55.462 -999 -999 -999 -999 -999
2009-01-16 07:39:25 51°14.056 2°55.457 -999 -999 -999 -999 -999
2009-01-16 07:39:30 51°14.065 2°55.451 -999 -999 -999 -999 -999
2009-01-16 07:39:35 51°14.073 2°55.444 -999 -999 -999 -999 -999
2009-01-16 07:39:41 51°14.084 2°55.436 -999 -999 -999 -999 -999
2009-01-16 07:39:45 51°14.091 2°55.431 -999 -999 -999 -999 -999
2009-01-16 07:39:50 51°14.1 2°55.424 -999 -999 -999 -999 -999
2009-01-16 07:39:55 51°14.108 2°55.417 -999 -999 -999 -999 -999
2009-01-16 07:40:01 51°14.119 2°55.409 -999 -999 -999 -999 -999
2009-01-16 07:40:05 51°14.126 2°55.404 -999 -999 -999 -999 -999
2009-01-16 07:40:10 51°14.134 2°55.397 -999 -999 -999 -999 -999
2009-01-16 07:40:16 51°14.145 2°55.389 -999 -999 -999 -999 -999
2009-01-16 07:40:21 51°14.154 2°55.382 -999 -999 -999 -999 -999
2009-01-16 07:40:25 51°14.161 2°55.376 -999 -999 -999 -999 -999
2009-01-16 07:40:30 51°14.169 2°55.369 -999 -999 -999 -999 -999
2009-01-16 07:40:36 51°14.18 2°55.36 -999 -999 -999 -999 -999
2009-01-16 07:40:41 51°14.188 2°55.352 -999 -999 -999 -999 -999
2009-01-16 07:40:45 51°14.195 2°55.345 -999 -999 -999 -999 -999
2009-01-16 07:40:50 51°14.203 2°55.337 -999 -999 -999 -999 -999
2009-01-16 07:40:55 51°14.211 2°55.328 -999 -999 -999 -999 -999
2009-01-16 07:41:01 51°14.22 2°55.316 -999 -999 -999 -999 -999
2009-01-16 07:41:05 51°14.226 2°55.308 -999 -999 -999 -999 -999
2009-01-16 07:41:10 51°14.234 2°55.298 -999 -999 -999 -999 -999
2009-01-16 07:41:15 51°14.241 2°55.287 -999 -999 -999 -999 -999
2009-01-16 07:41:20 51°14.248 2°55.276 -999 -999 -999 -999 -999
2009-01-16 07:41:25 51°14.256 2°55.265 -999 -999 -999 -999 -999
2009-01-16 07:41:30 51°14.263 2°55.253 -999 -999 -999 -999 -999
2009-01-16 07:41:35 51°14.27 2°55.241 -999 -999 -999 -999 -999
2009-01-16 07:41:41 51°14.279 2°55.227 -999 -999 -999 -999 -999
2009-01-16 07:41:46 51°14.286 2°55.215 -999 -999 -999 -999 -999
2009-01-16 07:41:50 51°14.292 2°55.205 -999 -999 -999 -999 -999
2009-01-16 07:41:56 51°14.301 2°55.189 -999 -999 -999 -999 -999
2009-01-16 07:42:01 51°14.309 2°55.176 -999 -999 -999 -999 -999
2009-01-16 07:42:05 51°14.315 2°55.165 -999 -999 -999 -999 -999
2009-01-16 07:42:10 51°14.323 2°55.152 -999 -999 -999 -999 -999
2009-01-16 07:42:15 51°14.331 2°55.138 -999 -999 -999 -999 -999
2009-01-16 07:42:21 51°14.341 2°55.121 -999 -999 -999 -999 -999
2009-01-16 07:42:25 51°14.347 2°55.109 -999 -999 -999 -999 -999
2009-01-16 07:42:30 51°14.355 2°55.094 -999 -999 -999 -999 -999
2009-01-16 07:42:36 51°14.365 2°55.076 -999 -999 -999 -999 -999
2009-01-16 07:42:41 51°14.373 2°55.061 -999 -999 -999 -999 -999
2009-01-16 07:42:45 51°14.379 2°55.048 -999 -999 -999 -999 -999
2009-01-16 07:42:50 51°14.387 2°55.031 -999 -999 -999 -999 -999
2009-01-16 07:42:56 51°14.397 2°55.012 -999 -999 -999 -999 -999
2009-01-16 07:43:01 51°14.406 2°54.996 -999 -999 -999 -999 -999
2009-01-16 07:43:05 51°14.414 2°54.984 -999 -999 -999 -999 -999
2009-01-16 07:43:10 51°14.423 2°54.969 -999 -999 -999 -999 -999
2009-01-16 07:43:15 51°14.433 2°54.954 -999 -999 -999 -999 -999
2009-01-16 07:43:21 51°14.445 2°54.937 -999 -999 -999 -999 -999
2009-01-16 07:43:25 51°14.454 2°54.926 -999 -999 -999 -999 -999
2009-01-16 07:43:30 51°14.465 2°54.913 -999 -999 -999 -999 -999
2009-01-16 07:43:35 51°14.477 2°54.901 -999 -999 -999 -999 -999
2009-01-16 07:43:41 51°14.491 2°54.888 -999 -999 -999 -999 -999
2009-01-16 07:43:45 51°14.501 2°54.879 -999 -999 -999 -999 -999
2009-01-16 07:43:50 51°14.514 2°54.869 -999 -999 -999 -999 -999
2009-01-16 07:43:55 51°14.526 2°54.858 -999 -999 -999 -999 -999
2009-01-16 07:44:01 51°14.541 2°54.846 -999 -999 -999 -999 -999
2009-01-16 07:44:05 51°14.551 2°54.837 -999 -999 -999 -999 -999
2009-01-16 07:44:10 51°14.564 2°54.825 -999 -999 -999 -999 -999
2009-01-16 07:44:16 51°14.58 2°54.812 -999 -999 -999 -999 -999
2009-01-16 07:44:21 51°14.593 2°54.8 -999 -999 -999 -999 -999
2009-01-16 07:44:25 51°14.604 2°54.791 -999 -999 -999 -999 -999
2009-01-16 07:44:30 51°14.617 2°54.779 -999 -999 -999 -999 -999
2009-01-16 07:44:35 51°14.631 2°54.766 -999 -999 -999 -999 -999
2009-01-16 07:44:41 51°14.647 2°54.751 -999 -999 -999 -999 -999
2009-01-16 07:44:45 51°14.658 2°54.74 -999 -999 -999 -999 -999
2009-01-16 07:44:50 51°14.672 2°54.727 -999 -999 -999 -999 -999
2009-01-16 07:44:56 51°14.689 2°54.711 -999 -999 -999 -999 -999
2009-01-16 07:45:01 51°14.704 2°54.697 -999 -999 -999 -999 -999
2009-01-16 07:45:05 51°14.715 2°54.685 -999 -999 -999 -999 -999
2009-01-16 07:45:10 51°14.73 2°54.671 -999 -999 -999 -999 -999
2009-01-16 07:45:15 51°14.744 2°54.657 -999 -999 -999 -999 -999
2009-01-16 07:45:21 51°14.762 2°54.64 -999 -999 -999 -999 -999
2009-01-16 07:45:25 51°14.774 2°54.628 -999 -999 -999 -999 -999
2009-01-16 07:45:30 51°14.788 2°54.614 -999 -999 -999 -999 -999
2009-01-16 07:45:35 51°14.803 2°54.6 -999 -999 -999 -999 -999
2009-01-16 07:45:41 51°14.82 2°54.582 -999 -999 -999 -999 -999
2009-01-16 07:45:45 51°14.832 2°54.571 -999 -999 -999 -999 -999
2009-01-16 07:45:50 51°14.846 2°54.555 -999 -999 -999 -999 -999
2009-01-16 07:45:55 51°14.861 2°54.54 -999 -999 -999 -999 -999
2009-01-16 07:46:01 51°14.878 2°54.522 -999 -999 -999 -999 -999
2009-01-16 07:46:05 51°14.89 2°54.51 -999 -999 -999 -999 -999
2009-01-16 07:46:10 51°14.904 2°54.494 -999 -999 -999 -999 -999
2009-01-16 07:46:15 51°14.918 2°54.479 -999 -999 -999 -999 -999
2009-01-16 07:46:21 51°14.936 2°54.461 -999 -999 -999 -999 -999
2009-01-16 07:46:25 51°14.948 2°54.45 -999 -999 -999 -999 -999
2009-01-16 07:46:30 51°14.962 2°54.434 -999 -999 -999 -999 -999
2009-01-16 07:46:36 51°14.98 2°54.416 -999 -999 -999 -999 -999
2009-01-16 07:46:41 51°14.994 2°54.401 -999 -999 -999 -999 -999
2009-01-16 07:46:45 51°15.006 2°54.389 -999 -999 -999 -999 -999
2009-01-16 07:46:50 51°15.021 2°54.374 -999 -999 -999 -999 -999
2009-01-16 07:46:55 51°15.036 2°54.36 -999 -999 -999 -999 -999
2009-01-16 07:47:01 51°15.053 2°54.341 -999 -999 -999 -999 -999
2009-01-16 07:47:05 51°15.066 2°54.33 -999 -999 -999 -999 -999
2009-01-16 07:47:10 51°15.081 2°54.315 -999 -999 -999 -999 -999
2009-01-16 07:47:16 51°15.099 2°54.298 -999 -999 -999 -999 -999
2009-01-16 07:47:21 51°15.114 2°54.283 -999 -999 -999 -999 -999
2009-01-16 07:47:25 51°15.126 2°54.272 -999 -999 -999 -999 -999
2009-01-16 07:47:30 51°15.141 2°54.257 -999 -999 -999 -999 -999
2009-01-16 07:47:36 51°15.159 2°54.24 -999 -999 -999 -999 -999
2009-01-16 07:47:41 51°15.174 2°54.225 -999 -999 -999 -999 -999
2009-01-16 07:47:45 51°15.186 2°54.213 -999 -999 -999 -999 -999
2009-01-16 07:47:50 51°15.201 2°54.199 -999 -999 -999 -999 -999
2009-01-16 07:47:55 51°15.216 2°54.185 -999 -999 -999 -999 -999
2009-01-16 07:48:01 51°15.234 2°54.168 -999 -999 -999 -999 -999
2009-01-16 07:48:05 51°15.246 2°54.156 -999 -999 -999 -999 -999
2009-01-16 07:48:10 51°15.261 2°54.142 -999 -999 -999 -999 -999
2009-01-16 07:48:15 51°15.276 2°54.128 -999 -999 -999 -999 -999
2009-01-16 07:48:20 51°15.291 2°54.114 -999 -999 -999 -999 -999
2009-01-16 07:48:25 51°15.306 2°54.101 -999 -999 -999 -999 -999
2009-01-16 07:48:30 51°15.321 2°54.088 -999 -999 -999 -999 -999
2009-01-16 07:48:35 51°15.336 2°54.075 -999 -999 -999 -999 -999
2009-01-16 07:48:40 51°15.351 2°54.062 -999 -999 -999 -999 -999
2009-01-16 07:48:45 51°15.366 2°54.049 -999 -999 -999 -999 -999
2009-01-16 07:48:50 51°15.381 2°54.036 -999 -999 -999 -999 -999
2009-01-16 07:48:55 51°15.396 2°54.023 -999 -999 -999 -999 -999
2009-01-16 07:49:00 51°15.411 2°54.009 -999 -999 -999 -999 -999
2009-01-16 07:49:05 51°15.426 2°53.996 -999 -999 -999 -999 -999
2009-01-16 07:49:10 51°15.441 2°53.982 -999 -999 -999 -999 -999
2009-01-16 07:49:15 51°15.455 2°53.969 -999 -999 -999 -999 -999
2009-01-16 07:49:20 51°15.47 2°53.955 -999 -999 -999 -999 -999
2009-01-16 07:49:25 51°15.485 2°53.941 -999 -999 -999 -999 -999
2009-01-16 07:49:30 51°15.5 2°53.927 -999 -999 -999 -999 -999
2009-01-16 07:49:35 51°15.514 2°53.914 -999 -999 -999 -999 -999
2009-01-16 07:49:40 51°15.529 2°53.9 -999 -999 -999 -999 -999
2009-01-16 07:49:45 51°15.544 2°53.886 -999 -999 -999 -999 -999
2009-01-16 07:49:50 51°15.558 2°53.871 -999 -999 -999 -999 -999
2009-01-16 07:49:55 51°15.573 2°53.856 -999 -999 -999 -999 -999
2009-01-16 07:50:01 51°15.59 2°53.838 -999 -999 -999 -999 -999
2009-01-16 07:50:05 51°15.602 2°53.826 -999 -999 -999 -999 -999
2009-01-16 07:50:10 51°15.616 2°53.811 -999 -999 -999 -999 -999
2009-01-16 07:50:15 51°15.63 2°53.797 -999 -999 -999 -999 -999
2009-01-16 07:50:21 51°15.648 2°53.78 -999 -999 -999 -999 -999
2009-01-16 07:50:25 51°15.66 2°53.768 -999 -999 -999 -999 -999
2009-01-16 07:50:30 51°15.675 2°53.754 -999 -999 -999 -999 -999
2009-01-16 07:50:35 51°15.689 2°53.741 -999 -999 -999 -999 -999
2009-01-16 07:50:40 51°15.704 2°53.727 -999 -999 -999 -999 -999
2009-01-16 07:50:45 51°15.719 2°53.713 -999 -999 -999 -999 -999
2009-01-16 07:50:50 51°15.734 2°53.7 -999 -999 -999 -999 -999
2009-01-16 07:50:55 51°15.749 2°53.687 -999 -999 -999 -999 -999
2009-01-16 07:51:00 51°15.764 2°53.673 -999 -999 -999 -999 -999
2009-01-16 07:51:05 51°15.779 2°53.659 -999 -999 -999 -999 -999
2009-01-16 07:51:10 51°15.793 2°53.645 -999 -999 -999 -999 -999
2009-01-16 07:51:15 51°15.808 2°53.632 -999 -999 -999 -999 -999
2009-01-16 07:51:20 51°15.823 2°53.618 -999 -999 -999 -999 -999
2009-01-16 07:51:25 51°15.838 2°53.604 -999 -999 -999 -999 -999
2009-01-16 07:51:30 51°15.853 2°53.591 -999 -999 -999 -999 -999
2009-01-16 07:51:35 51°15.868 2°53.577 -999 -999 -999 -999 -999
2009-01-16 07:51:40 51°15.883 2°53.564 -999 -999 -999 -999 -999
2009-01-16 07:51:45 51°15.898 2°53.55 -999 -999 -999 -999 -999
2009-01-16 07:51:50 51°15.912 2°53.536 -999 -999 -999 -999 -999
2009-01-16 07:51:55 51°15.927 2°53.522 -999 -999 -999 -999 -999
2009-01-16 07:52:00 51°15.942 2°53.508 -999 -999 -999 -999 -999
2009-01-16 07:52:05 51°15.957 2°53.494 -999 -999 -999 -999 -999
2009-01-16 07:52:10 51°15.972 2°53.48 -999 -999 -999 -999 -999
2009-01-16 07:52:15 51°15.987 2°53.466 -999 -999 -999 -999 -999
2009-01-16 07:52:20 51°16.002 2°53.453 -999 -999 -999 -999 -999
2009-01-16 07:52:25 51°16.017 2°53.439 -999 -999 -999 -999 -999
2009-01-16 07:52:30 51°16.032 2°53.425 -999 -999 -999 -999 -999
2009-01-16 07:52:35 51°16.047 2°53.411 -999 -999 -999 -999 -999
2009-01-16 07:52:40 51°16.062 2°53.397 -999 -999 -999 -999 -999
2009-01-16 07:52:45 51°16.077 2°53.383 -999 -999 -999 -999 -999
2009-01-16 07:52:50 51°16.091 2°53.369 -999 -999 -999 -999 -999
2009-01-16 07:52:55 51°16.107 2°53.356 -999 -999 -999 -999 -999
2009-01-16 07:53:00 51°16.121 2°53.342 -999 -999 -999 -999 -999
2009-01-16 07:53:05 51°16.136 2°53.328 -999 -999 -999 -999 -999
2009-01-16 07:53:10 51°16.151 2°53.315 -999 -999 -999 -999 -999
2009-01-16 07:53:15 51°16.166 2°53.301 -999 -999 -999 -999 -999
2009-01-16 07:53:20 51°16.181 2°53.286 -999 -999 -999 -999 -999
2009-01-16 07:53:25 51°16.196 2°53.273 -999 -999 -999 -999 -999
2009-01-16 07:53:30 51°16.211 2°53.259 -999 -999 -999 -999 -999
2009-01-16 07:53:35 51°16.226 2°53.244 -999 -999 -999 -999 -999
2009-01-16 07:53:40 51°16.241 2°53.23 -999 -999 -999 -999 -999
2009-01-16 07:53:45 51°16.255 2°53.217 -999 -999 -999 -999 -999
2009-01-16 07:53:50 51°16.271 2°53.203 -999 -999 -999 -999 -999
2009-01-16 07:53:55 51°16.286 2°53.189 -999 -999 -999 -999 -999
2009-01-16 07:54:00 51°16.301 2°53.176 -999 -999 -999 -999 -999
2009-01-16 07:54:05 51°16.316 2°53.163 -999 -999 -999 -999 -999
2009-01-16 07:54:10 51°16.332 2°53.15 -999 -999 -999 -999 -999
2009-01-16 07:54:15 51°16.347 2°53.138 -999 -999 -999 -999 -999
2009-01-16 07:54:20 51°16.363 2°53.125 -999 -999 -999 -999 -999
2009-01-16 07:54:25 51°16.379 2°53.113 -999 -999 -999 -999 -999
2009-01-16 07:54:30 51°16.395 2°53.101 -999 -999 -999 -999 -999
2009-01-16 07:54:35 51°16.41 2°53.089 -999 -999 -999 -999 -999
2009-01-16 07:54:41 51°16.429 2°53.074 -999 -999 -999 -999 -999
2009-01-16 07:54:45 51°16.441 2°53.064 -999 -999 -999 -999 -999
2009-01-16 07:54:50 51°16.457 2°53.052 -999 -999 -999 -999 -999
2009-01-16 07:54:55 51°16.472 2°53.039 -999 -999 -999 -999 -999
2009-01-16 07:55:00 51°16.488 2°53.026 -999 -999 -999 -999 -999
2009-01-16 07:55:05 51°16.503 2°53.015 -999 -999 -999 -999 -999
2009-01-16 07:55:10 51°16.519 2°53.003 -999 -999 -999 -999 -999
2009-01-16 07:55:15 51°16.535 2°52.991 -999 -999 -999 -999 -999
2009-01-16 07:55:20 51°16.551 2°52.98 -999 -999 -999 -999 -999
2009-01-16 07:55:25 51°16.567 2°52.968 -999 -999 -999 -999 -999
2009-01-16 07:55:30 51°16.583 2°52.957 -999 -999 -999 -999 -999
2009-01-16 07:55:35 51°16.599 2°52.946 -999 -999 -999 -999 -999
2009-01-16 07:55:40 51°16.615 2°52.935 -999 -999 -999 -999 -999
2009-01-16 07:55:45 51°16.63 2°52.924 -999 -999 -999 -999 -999
2009-01-16 07:55:50 51°16.646 2°52.912 -999 -999 -999 -999 -999
2009-01-16 07:55:55 51°16.662 2°52.901 -999 -999 -999 -999 -999
2009-01-16 07:56:00 51°16.678 2°52.89 -999 -999 -999 -999 -999
2009-01-16 07:56:05 51°16.694 2°52.878 -999 -999 -999 -999 -999
2009-01-16 07:56:10 51°16.709 2°52.867 -999 -999 -999 -999 -999
2009-01-16 07:56:15 51°16.725 2°52.856 -999 -999 -999 -999 -999
2009-01-16 07:56:20 51°16.741 2°52.845 -999 -999 -999 -999 -999
2009-01-16 07:56:25 51°16.756 2°52.833 -999 -999 -999 -999 -999
2009-01-16 07:56:30 51°16.772 2°52.821 -999 -999 -999 -999 -999
2009-01-16 07:56:35 51°16.787 2°52.808 -999 -999 -999 -999 -999
2009-01-16 07:56:40 51°16.802 2°52.796 -999 -999 -999 -999 -999
2009-01-16 07:56:45 51°16.818 2°52.784 -999 -999 -999 -999 -999
2009-01-16 07:56:50 51°16.833 2°52.772 -999 -999 -999 -999 -999
2009-01-16 07:56:55 51°16.849 2°52.76 -999 -999 -999 -999 -999
2009-01-16 07:57:00 51°16.864 2°52.749 -999 -999 -999 -999 -999
2009-01-16 07:57:05 51°16.879 2°52.736 -999 -999 -999 -999 -999
2009-01-16 07:57:10 51°16.895 2°52.725 -999 -999 -999 -999 -999
2009-01-16 07:57:15 51°16.91 2°52.712 -999 -999 -999 -999 -999
2009-01-16 07:57:21 51°16.929 2°52.697 -999 -999 -999 -999 -999
2009-01-16 07:57:25 51°16.941 2°52.687 -999 -999 -999 -999 -999
2009-01-16 07:57:30 51°16.956 2°52.675 -999 -999 -999 -999 -999
2009-01-16 07:57:35 51°16.972 2°52.664 -999 -999 -999 -999 -999
2009-01-16 07:57:40 51°16.988 2°52.653 -999 -999 -999 -999 -999
2009-01-16 07:57:45 51°17.004 2°52.643 -999 -999 -999 -999 -999
2009-01-16 07:57:50 51°17.02 2°52.633 -999 -999 -999 -999 -999
2009-01-16 07:57:55 51°17.036 2°52.624 -999 -999 -999 -999 -999
2009-01-16 07:58:00 51°17.052 2°52.614 -999 -999 -999 -999 -999
2009-01-16 07:58:05 51°17.069 2°52.606 -999 -999 -999 -999 -999
2009-01-16 07:58:10 51°17.085 2°52.597 -999 -999 -999 -999 -999
2009-01-16 07:58:15 51°17.101 2°52.589 -999 -999 -999 -999 -999
2009-01-16 07:58:20 51°17.118 2°52.582 -999 -999 -999 -999 -999
2009-01-16 07:58:25 51°17.134 2°52.575 -999 -999 -999 -999 -999
2009-01-16 07:58:30 51°17.151 2°52.57 -999 -999 -999 -999 -999
2009-01-16 07:58:35 51°17.168 2°52.564 -999 -999 -999 -999 -999
2009-01-16 07:58:40 51°17.185 2°52.558 -999 -999 -999 -999 -999
2009-01-16 07:58:45 51°17.202 2°52.553 -999 -999 -999 -999 -999
2009-01-16 07:58:50 51°17.219 2°52.548 -999 -999 -999 -999 -999
2009-01-16 07:58:55 51°17.235 2°52.543 -999 -999 -999 -999 -999
2009-01-16 07:59:00 51°17.253 2°52.539 -999 -999 -999 -999 -999
2009-01-16 07:59:05 51°17.269 2°52.534 -999 -999 -999 -999 -999
2009-01-16 07:59:10 51°17.286 2°52.53 -999 -999 -999 -999 -999
2009-01-16 07:59:15 51°17.304 2°52.524 -999 -999 -999 -999 -999
2009-01-16 07:59:20 51°17.32 2°52.52 -999 -999 -999 -999 -999
2009-01-16 07:59:25 51°17.337 2°52.515 -999 -999 -999 -999 -999
2009-01-16 07:59:30 51°17.354 2°52.51 -999 -999 -999 -999 -999
2009-01-16 07:59:35 51°17.371 2°52.506 -999 -999 -999 -999 -999
2009-01-16 07:59:40 51°17.388 2°52.5 -999 -999 -999 -999 -999
2009-01-16 07:59:45 51°17.405 2°52.496 -999 -999 -999 -999 -999
2009-01-16 07:59:50 51°17.422 2°52.492 -999 -999 -999 -999 -999
2009-01-16 07:59:55 51°17.439 2°52.489 -999 -999 -999 -999 -999
2009-01-16 08:00:00 51°17.457 2°52.486 -999 -999 -999 -999 -999
2009-01-16 08:00:05 51°17.474 2°52.483 -999 -999 -999 -999 -999
2009-01-16 08:00:10 51°17.491 2°52.481 -999 -999 -999 -999 -999
2009-01-16 08:00:15 51°17.508 2°52.478 -999 -999 -999 -999 -999
2009-01-16 08:00:20 51°17.525 2°52.475 -999 -999 -999 -999 -999
2009-01-16 08:00:25 51°17.542 2°52.472 -999 -999 -999 -999 -999
2009-01-16 08:00:30 51°17.559 2°52.469 -999 -999 -999 -999 -999
2009-01-16 08:00:35 51°17.576 2°52.466 -999 -999 -999 -999 -999
2009-01-16 08:00:40 51°17.593 2°52.464 -999 -999 -999 -999 -999
2009-01-16 08:00:45 51°17.61 2°52.461 -999 -999 -999 -999 -999
2009-01-16 08:00:50 51°17.628 2°52.459 -999 -999 -999 -999 -999
2009-01-16 08:00:55 51°17.645 2°52.457 -999 -999 -999 -999 -999
2009-01-16 08:01:00 51°17.662 2°52.455 -999 -999 -999 -999 -999
2009-01-16 08:01:05 51°17.679 2°52.454 -999 -999 -999 -999 -999
2009-01-16 08:01:10 51°17.696 2°52.452 -999 -999 -999 -999 -999
2009-01-16 08:01:15 51°17.713 2°52.452 -999 -999 -999 -999 -999
2009-01-16 08:01:20 51°17.73 2°52.45 -999 -999 -999 -999 -999
2009-01-16 08:01:25 51°17.748 2°52.449 -999 -999 -999 -999 -999
2009-01-16 08:01:30 51°17.765 2°52.448 -999 -999 -999 -999 -999
2009-01-16 08:01:35 51°17.782 2°52.447 -999 -999 -999 -999 -999
2009-01-16 08:01:41 51°17.802 2°52.446 -999 -999 -999 -999 -999
2009-01-16 08:01:45 51°17.816 2°52.444 -999 -999 -999 -999 -999
2009-01-16 08:01:50 51°17.833 2°52.443 -999 -999 -999 -999 -999
2009-01-16 08:01:55 51°17.85 2°52.442 -999 -999 -999 -999 -999
2009-01-16 08:02:00 51°17.867 2°52.441 -999 -999 -999 -999 -999
2009-01-16 08:02:05 51°17.884 2°52.439 -999 -999 -999 -999 -999
2009-01-16 08:02:10 51°17.901 2°52.438 -999 -999 -999 -999 -999
2009-01-16 08:02:15 51°17.918 2°52.437 -999 -999 -999 -999 -999
2009-01-16 08:02:20 51°17.935 2°52.435 -999 -999 -999 -999 -999
2009-01-16 08:02:25 51°17.952 2°52.434 -999 -999 -999 -999 -999
2009-01-16 08:02:30 51°17.969 2°52.433 -999 -999 -999 -999 -999
2009-01-16 08:02:35 51°17.986 2°52.431 -999 -999 -999 -999 -999
2009-01-16 08:02:40 51°18.004 2°52.43 -999 -999 -999 -999 -999
2009-01-16 08:02:45 51°18.021 2°52.429 -999 -999 -999 -999 -999
2009-01-16 08:02:50 51°18.038 2°52.427 -999 -999 -999 -999 -999
2009-01-16 08:02:55 51°18.055 2°52.427 -999 -999 -999 -999 -999
2009-01-16 08:03:00 51°18.072 2°52.427 -999 -999 -999 -999 -999
2009-01-16 08:03:05 51°18.089 2°52.428 -999 -999 -999 -999 -999
2009-01-16 08:03:10 51°18.106 2°52.431 -999 -999 -999 -999 -999
2009-01-16 08:03:15 51°18.123 2°52.435 -999 -999 -999 -999 -999
2009-01-16 08:03:20 51°18.139 2°52.441 -999 -999 -999 -999 -999
2009-01-16 08:03:25 51°18.156 2°52.445 -999 -999 -999 -999 -999
2009-01-16 08:03:30 51°18.172 2°52.452 -999 -999 -999 -999 -999
2009-01-16 08:03:35 51°18.189 2°52.457 -999 -999 -999 -999 -999
2009-01-16 08:03:40 51°18.205 2°52.464 -999 -999 -999 -999 -999
2009-01-16 08:03:45 51°18.222 2°52.47 -999 -999 -999 -999 -999
2009-01-16 08:03:50 51°18.238 2°52.476 -999 -999 -999 -999 -999
2009-01-16 08:03:55 51°18.254 2°52.483 -999 -999 -999 -999 -999
2009-01-16 08:04:00 51°18.271 2°52.489 -999 -999 -999 -999 -999
2009-01-16 08:04:05 51°18.287 2°52.496 -999 -999 -999 -999 -999
2009-01-16 08:04:10 51°18.304 2°52.503 -999 -999 -999 -999 -999
2009-01-16 08:04:15 51°18.32 2°52.51 -999 -999 -999 -999 -999
2009-01-16 08:04:20 51°18.337 2°52.516 -999 -999 -999 -999 -999
2009-01-16 08:04:25 51°18.353 2°52.524 -999 -999 -999 -999 -999
2009-01-16 08:04:30 51°18.37 2°52.529 -999 -999 -999 -999 -999
2009-01-16 08:04:35 51°18.386 2°52.536 -999 -999 -999 -999 -999
2009-01-16 08:04:40 51°18.403 2°52.542 -999 -999 -999 -999 -999
2009-01-16 08:04:45 51°18.419 2°52.549 -999 -999 -999 -999 -999
2009-01-16 08:04:50 51°18.436 2°52.555 -999 -999 -999 -999 -999
2009-01-16 08:04:55 51°18.452 2°52.561 -999 -999 -999 -999 -999
2009-01-16 08:05:00 51°18.469 2°52.567 -999 -999 -999 -999 -999
2009-01-16 08:05:05 51°18.485 2°52.574 -999 -999 -999 -999 -999
2009-01-16 08:05:10 51°18.502 2°52.58 -999 -999 -999 -999 -999
2009-01-16 08:05:15 51°18.518 2°52.586 -999 -999 -999 -999 -999
2009-01-16 08:05:20 51°18.535 2°52.593 -999 -999 -999 -999 -999
2009-01-16 08:05:25 51°18.551 2°52.598 -999 -999 -999 -999 -999
2009-01-16 08:05:30 51°18.568 2°52.605 -999 -999 -999 -999 -999
2009-01-16 08:05:35 51°18.584 2°52.61 -999 -999 -999 -999 -999
2009-01-16 08:05:40 51°18.601 2°52.617 -999 -999 -999 -999 -999
2009-01-16 08:05:45 51°18.617 2°52.623 -999 -999 -999 -999 -999
2009-01-16 08:05:50 51°18.634 2°52.628 -999 -999 -999 -999 -999
2009-01-16 08:05:55 51°18.651 2°52.634 -999 -999 -999 -999 -999
2009-01-16 08:06:01 51°18.67 2°52.642 -999 -999 -999 -999 -999
2009-01-16 08:06:05 51°18.684 2°52.647 -999 -999 -999 -999 -999
2009-01-16 08:06:10 51°18.699 2°52.653 -999 -999 -999 -999 -999
2009-01-16 08:06:15 51°18.713 2°52.658 -999 -999 -999 -999 -999
2009-01-16 08:06:21 51°18.729 2°52.665 -999 -999 -999 -999 -999
2009-01-16 08:06:25 51°18.738 2°52.67 -999 -999 -999 -999 -999
2009-01-16 08:06:30 51°18.749 2°52.677 -999 -999 -999 -999 -999
2009-01-16 08:06:35 51°18.759 2°52.683 -999 -999 -999 -999 -999
2009-01-16 08:06:40 51°18.768 2°52.691 -999 -999 -999 -999 -999
2009-01-16 08:06:45 51°18.776 2°52.698 -999 -999 -999 -999 -999
2009-01-16 08:06:50 51°18.783 2°52.705 -999 -999 -999 -999 -999
2009-01-16 08:06:55 51°18.789 2°52.712 -999 -999 -999 -999 -999
2009-01-16 08:07:00 51°18.795 2°52.719 -999 -999 -999 -999 -999
2009-01-16 08:07:05 51°18.8 2°52.726 -999 -999 -999 -999 -999
2009-01-16 08:07:10 51°18.805 2°52.733 -999 -999 -999 -999 -999
2009-01-16 08:07:15 51°18.81 2°52.739 -999 -999 -999 -999 -999
2009-01-16 08:07:20 51°18.814 2°52.745 -999 -999 -999 -999 -999
2009-01-16 08:07:25 51°18.818 2°52.751 -999 -999 -999 -999 -999
2009-01-16 08:07:30 51°18.821 2°52.757 -999 -999 -999 -999 -999
2009-01-16 08:07:35 51°18.825 2°52.762 -999 -999 -999 -999 -999
2009-01-16 08:07:40 51°18.828 2°52.768 -999 -999 -999 -999 -999
2009-01-16 08:07:45 51°18.831 2°52.773 -999 -999 -999 -999 -999
2009-01-16 08:07:50 51°18.833 2°52.778 -999 -999 -999 -999 -999
2009-01-16 08:07:55 51°18.835 2°52.783 -999 -999 -999 -999 -999
2009-01-16 08:08:00 51°18.838 2°52.787 -999 -999 -999 -999 -999
2009-01-16 08:08:05 51°18.84 2°52.791 -999 -999 -999 -999 -999
2009-01-16 08:08:10 51°18.843 2°52.796 -999 -999 -999 -999 -999
2009-01-16 08:08:15 51°18.845 2°52.801 -999 -999 -999 -999 -999
2009-01-16 08:08:20 51°18.847 2°52.806 -999 -999 -999 -999 -999
2009-01-16 08:08:25 51°18.849 2°52.811 -999 -999 -999 -999 -999
2009-01-16 08:08:30 51°18.851 2°52.817 -999 -999 -999 -999 -999
2009-01-16 08:08:35 51°18.854 2°52.823 -999 -999 -999 -999 -999
2009-01-16 08:08:40 51°18.856 2°52.83 -999 -999 -999 -999 -999
2009-01-16 08:08:45 51°18.858 2°52.836 -999 -999 -999 -999 -999
2009-01-16 08:08:50 51°18.86 2°52.844 -999 -999 -999 -999 -999
2009-01-16 08:08:55 51°18.862 2°52.852 -999 -999 -999 -999 -999
2009-01-16 08:09:00 51°18.864 2°52.86 -999 -999 -999 -999 -999
2009-01-16 08:09:05 51°18.866 2°52.868 -999 -999 -999 -999 -999
2009-01-16 08:09:10 51°18.867 2°52.877 -999 -999 -999 -999 -999
2009-01-16 08:09:15 51°18.869 2°52.885 -999 -999 -999 -999 -999
2009-01-16 08:09:20 51°18.87 2°52.893 -999 -999 -999 -999 -999
2009-01-16 08:09:25 51°18.872 2°52.902 -999 -999 -999 -999 -999
2009-01-16 08:09:30 51°18.873 2°52.911 -999 -999 -999 -999 -999
2009-01-16 08:09:35 51°18.874 2°52.92 -999 -999 -999 -999 -999
2009-01-16 08:09:40 51°18.875 2°52.928 -999 -999 -999 -999 -999
2009-01-16 08:09:45 51°18.875 2°52.937 -999 -999 -999 -999 -999
2009-01-16 08:09:50 51°18.876 2°52.945 -999 -999 -999 -999 -999
2009-01-16 08:09:55 51°18.878 2°52.954 -999 -999 -999 -999 -999
2009-01-16 08:10:00 51°18.877 2°52.962 -999 -999 -999 -999 -999
2009-01-16 08:10:05 51°18.877 2°52.97 -999 -999 -999 -999 -999
2009-01-16 08:10:10 51°18.876 2°52.977 -999 -999 -999 -999 -999
2009-01-16 08:10:15 51°18.876 2°52.985 -999 -999 -999 -999 -999
2009-01-16 08:10:21 51°18.876 2°52.994 -999 -999 -999 -999 -999
2009-01-16 08:10:25 51°18.875 2°53 -999 -999 -999 -999 -999
2009-01-16 08:10:30 51°18.874 2°53.007 -999 -999 -999 -999 -999
2009-01-16 08:10:35 51°18.874 2°53.014 -999 -999 -999 -999 -999
2009-01-16 08:10:41 51°18.873 2°53.022 -999 -999 -999 -999 -999
2009-01-16 08:10:45 51°18.872 2°53.028 -999 -999 -999 -999 -999
2009-01-16 08:10:50 51°18.871 2°53.035 -999 -999 -999 -999 -999
2009-01-16 08:10:55 51°18.87 2°53.042 -999 -999 -999 -999 -999
2009-01-16 08:11:00 51°18.869 2°53.049 -999 -999 -999 -999 -999
2009-01-16 08:11:05 51°18.868 2°53.056 -999 -999 -999 -999 -999
2009-01-16 08:11:10 51°18.867 2°53.063 -999 -999 -999 -999 -999
2009-01-16 08:11:15 51°18.867 2°53.07 -999 -999 -999 -999 -999
2009-01-16 08:11:20 51°18.866 2°53.077 -999 -999 -999 -999 -999
2009-01-16 08:11:25 51°18.865 2°53.084 -999 -999 -999 -999 -999
2009-01-16 08:11:30 51°18.865 2°53.091 -999 -999 -999 -999 -999
2009-01-16 08:11:35 51°18.864 2°53.097 -999 -999 -999 -999 -999
2009-01-16 08:11:40 51°18.864 2°53.105 -999 -999 -999 -999 -999
2009-01-16 08:11:45 51°18.865 2°53.112 -999 -999 -999 -999 -999
2009-01-16 08:11:50 51°18.865 2°53.119 -999 -999 -999 -999 -999
2009-01-16 08:11:55 51°18.866 2°53.127 -999 -999 -999 -999 -999
2009-01-16 08:12:00 51°18.867 2°53.134 -999 -999 -999 -999 -999
2009-01-16 08:12:05 51°18.867 2°53.142 -999 -999 -999 -999 -999
2009-01-16 08:12:10 51°18.868 2°53.149 -999 -999 -999 -999 -999
2009-01-16 08:12:15 51°18.869 2°53.157 -999 -999 -999 -999 -999
2009-01-16 08:12:20 51°18.869 2°53.164 -999 -999 -999 -999 -999
2009-01-16 08:12:25 51°18.87 2°53.171 -999 -999 -999 -999 -999
2009-01-16 08:12:30 51°18.871 2°53.178 -999 -999 -999 -999 -999
2009-01-16 08:12:35 51°18.871 2°53.186 -999 -999 -999 -999 -999
2009-01-16 08:12:40 51°18.872 2°53.193 -999 -999 -999 -999 -999
2009-01-16 08:12:45 51°18.873 2°53.2 -999 -999 -999 -999 -999
2009-01-16 08:12:50 51°18.874 2°53.207 -999 -999 -999 -999 -999
2009-01-16 08:12:55 51°18.875 2°53.214 -999 -999 -999 -999 -999
2009-01-16 08:13:01 51°18.876 2°53.223 -999 -999 -999 -999 -999
2009-01-16 08:13:05 51°18.877 2°53.228 -999 -999 -999 -999 -999
2009-01-16 08:13:10 51°18.879 2°53.235 -999 -999 -999 -999 -999
2009-01-16 08:13:15 51°18.881 2°53.242 -999 -999 -999 -999 -999
2009-01-16 08:13:20 51°18.882 2°53.249 -999 -999 -999 -999 -999
2009-01-16 08:13:25 51°18.884 2°53.256 -999 -999 -999 -999 -999
2009-01-16 08:13:30 51°18.886 2°53.262 -999 -999 -999 -999 -999
2009-01-16 08:13:35 51°18.888 2°53.269 -999 -999 -999 -999 -999
2009-01-16 08:13:40 51°18.891 2°53.276 -999 -999 -999 -999 -999
2009-01-16 08:13:45 51°18.893 2°53.282 -999 -999 -999 -999 -999
2009-01-16 08:13:50 51°18.896 2°53.288 -999 -999 -999 -999 -999
2009-01-16 08:13:55 51°18.898 2°53.295 -999 -999 -999 -999 -999
2009-01-16 08:14:00 51°18.901 2°53.301 -999 -999 -999 -999 -999
2009-01-16 08:14:05 51°18.904 2°53.306 -999 -999 -999 -999 -999
2009-01-16 08:14:10 51°18.908 2°53.312 -999 -999 -999 -999 -999
2009-01-16 08:14:15 51°18.911 2°53.318 -999 -999 -999 -999 -999
2009-01-16 08:14:20 51°18.914 2°53.324 -999 -999 -999 -999 -999
2009-01-16 08:14:25 51°18.917 2°53.33 -999 -999 -999 -999 -999
2009-01-16 08:14:30 51°18.919 2°53.336 -999 -999 -999 -999 -999
2009-01-16 08:14:35 51°18.922 2°53.341 -999 -999 -999 -999 -999
2009-01-16 08:14:41 51°18.926 2°53.348 -999 -999 -999 -999 -999
2009-01-16 08:14:45 51°18.928 2°53.353 -999 -999 -999 -999 -999
2009-01-16 08:14:50 51°18.93 2°53.358 -999 -999 -999 -999 -999
2009-01-16 08:14:55 51°18.933 2°53.364 -999 -999 -999 -999 -999
2009-01-16 08:15:00 51°18.936 2°53.369 -999 -999 -999 -999 -999
2009-01-16 08:15:05 51°18.938 2°53.375 -999 -999 -999 -999 -999
2009-01-16 08:15:10 51°18.941 2°53.38 -999 -999 -999 -999 -999
2009-01-16 08:15:15 51°18.943 2°53.386 -999 -999 -999 -999 -999
2009-01-16 08:15:20 51°18.946 2°53.391 -999 -999 -999 -999 -999
2009-01-16 08:15:25 51°18.948 2°53.397 -999 -999 -999 -999 -999
2009-01-16 08:15:30 51°18.951 2°53.402 -999 -999 -999 -999 -999
2009-01-16 08:15:35 51°18.953 2°53.407 -999 -999 -999 -999 -999
2009-01-16 08:15:40 51°18.956 2°53.412 -999 -999 -999 -999 -999
2009-01-16 08:15:45 51°18.958 2°53.418 -999 -999 -999 -999 -999
2009-01-16 08:15:50 51°18.961 2°53.423 -999 -999 -999 -999 -999
2009-01-16 08:15:55 51°18.963 2°53.428 -999 -999 -999 -999 -999
2009-01-16 08:16:00 51°18.966 2°53.434 -999 -999 -999 -999 -999
2009-01-16 08:16:05 51°18.968 2°53.439 -999 -999 -999 -999 -999
2009-01-16 08:16:10 51°18.971 2°53.444 -999 -999 -999 -999 -999
2009-01-16 08:16:15 51°18.973 2°53.449 -999 -999 -999 -999 -999
2009-01-16 08:16:20 51°18.976 2°53.454 -999 -999 -999 -999 -999
2009-01-16 08:16:25 51°18.978 2°53.46 -999 -999 -999 -999 -999
2009-01-16 08:16:30 51°18.981 2°53.465 -999 -999 -999 -999 -999
2009-01-16 08:16:35 51°18.984 2°53.47 -999 -999 -999 -999 -999
2009-01-16 08:16:40 51°18.986 2°53.475 -999 -999 -999 -999 -999
2009-01-16 08:16:45 51°18.989 2°53.48 -999 -999 -999 -999 -999
2009-01-16 08:16:50 51°18.991 2°53.486 -999 -999 -999 -999 -999
2009-01-16 08:16:55 51°18.994 2°53.49 -999 -999 -999 -999 -999
2009-01-16 08:17:00 51°18.996 2°53.496 -999 -999 -999 -999 -999
2009-01-16 08:17:05 51°18.999 2°53.501 -999 -999 -999 -999 -999
2009-01-16 08:17:10 51°19.002 2°53.506 -999 -999 -999 -999 -999
2009-01-16 08:17:15 51°19.004 2°53.511 -999 -999 -999 -999 -999
2009-01-16 08:17:21 51°19.007 2°53.517 -999 -999 -999 -999 -999
2009-01-16 08:17:25 51°19.009 2°53.521 -999 -999 -999 -999 -999
2009-01-16 08:17:30 51°19.012 2°53.526 -999 -999 -999 -999 -999
2009-01-16 08:17:35 51°19.015 2°53.531 -999 -999 -999 -999 -999
2009-01-16 08:17:41 51°19.018 2°53.537 -999 -999 -999 -999 -999
2009-01-16 08:17:45 51°19.02 2°53.541 -999 -999 -999 -999 -999
2009-01-16 08:17:50 51°19.023 2°53.546 -999 -999 -999 -999 -999
2009-01-16 08:17:55 51°19.026 2°53.551 -999 -999 -999 -999 -999
2009-01-16 08:18:00 51°19.028 2°53.556 -999 -999 -999 -999 -999
2009-01-16 08:18:05 51°19.031 2°53.561 -999 -999 -999 -999 -999
2009-01-16 08:18:10 51°19.034 2°53.566 -999 -999 -999 -999 -999
2009-01-16 08:18:15 51°19.037 2°53.571 -999 -999 -999 -999 -999
2009-01-16 08:18:20 51°19.04 2°53.576 -999 -999 -999 -999 -999
2009-01-16 08:18:25 51°19.043 2°53.58 -999 -999 -999 -999 -999
2009-01-16 08:18:30 51°19.045 2°53.586 -999 -999 -999 -999 -999
2009-01-16 08:18:35 51°19.048 2°53.591 -999 -999 -999 -999 -999
2009-01-16 08:18:40 51°19.051 2°53.595 -999 -999 -999 -999 -999
2009-01-16 08:18:45 51°19.054 2°53.601 -999 -999 -999 -999 -999
2009-01-16 08:18:50 51°19.056 2°53.606 -999 -999 -999 -999 -999
2009-01-16 08:18:55 51°19.059 2°53.611 -999 -999 -999 -999 -999
2009-01-16 08:19:00 51°19.062 2°53.616 -999 -999 -999 -999 -999
2009-01-16 08:19:05 51°19.064 2°53.621 -999 -999 -999 -999 -999
2009-01-16 08:19:10 51°19.067 2°53.626 -999 -999 -999 -999 -999
2009-01-16 08:19:15 51°19.069 2°53.631 -999 -999 -999 -999 -999
2009-01-16 08:19:20 51°19.072 2°53.637 -999 -999 -999 -999 -999
2009-01-16 08:19:25 51°19.075 2°53.641 -999 -999 -999 -999 -999
2009-01-16 08:19:30 51°19.077 2°53.647 -999 -999 -999 -999 -999
2009-01-16 08:19:35 51°19.08 2°53.652 -999 -999 -999 -999 -999
2009-01-16 08:19:40 51°19.082 2°53.657 -999 -999 -999 -999 -999
2009-01-16 08:19:45 51°19.085 2°53.662 -999 -999 -999 -999 -999
2009-01-16 08:19:50 51°19.088 2°53.667 -999 -999 -999 -999 -999
2009-01-16 08:19:55 51°19.09 2°53.672 -999 -999 -999 -999 -999
2009-01-16 08:20:01 51°19.093 2°53.678 -999 -999 -999 -999 -999
2009-01-16 08:20:05 51°19.096 2°53.682 -999 -999 -999 -999 -999
2009-01-16 08:20:10 51°19.098 2°53.687 -999 -999 -999 -999 -999
2009-01-16 08:20:15 51°19.101 2°53.692 -999 -999 -999 -999 -999
2009-01-16 08:20:20 51°19.104 2°53.697 -999 -999 -999 -999 -999
2009-01-16 08:20:25 51°19.106 2°53.702 -999 -999 -999 -999 -999
2009-01-16 08:20:30 51°19.109 2°53.707 -999 -999 -999 -999 -999
2009-01-16 08:20:35 51°19.112 2°53.712 -999 -999 -999 -999 -999
2009-01-16 08:20:40 51°19.115 2°53.717 -999 -999 -999 -999 -999
2009-01-16 08:20:45 51°19.118 2°53.722 -999 -999 -999 -999 -999
2009-01-16 08:20:50 51°19.12 2°53.727 -999 -999 -999 -999 -999
2009-01-16 08:20:55 51°19.123 2°53.732 -999 -999 -999 -999 -999
2009-01-16 08:21:00 51°19.126 2°53.736 -999 -999 -999 -999 -999
2009-01-16 08:21:05 51°19.129 2°53.741 -999 -999 -999 -999 -999
2009-01-16 08:21:10 51°19.132 2°53.746 -999 -999 -999 -999 -999
2009-01-16 08:21:15 51°19.135 2°53.751 -999 -999 -999 -999 -999
2009-01-16 08:21:20 51°19.137 2°53.756 -999 -999 -999 -999 -999
2009-01-16 08:21:25 51°19.14 2°53.76 -999 -999 -999 -999 -999
2009-01-16 08:21:30 51°19.143 2°53.766 -999 -999 -999 -999 -999
2009-01-16 08:21:35 51°19.146 2°53.77 -999 -999 -999 -999 -999
2009-01-16 08:21:41 51°19.149 2°53.776 -999 -999 -999 -999 -999
2009-01-16 08:21:45 51°19.152 2°53.78 -999 -999 -999 -999 -999
2009-01-16 08:21:50 51°19.154 2°53.785 -999 -999 -999 -999 -999
2009-01-16 08:21:55 51°19.157 2°53.79 -999 -999 -999 -999 -999
2009-01-16 08:22:01 51°19.16 2°53.796 -999 -999 -999 -999 -999
2009-01-16 08:22:05 51°19.162 2°53.8 -999 -999 -999 -999 -999
2009-01-16 08:22:10 51°19.165 2°53.805 -999 -999 -999 -999 -999
2009-01-16 08:22:15 51°19.167 2°53.81 -999 -999 -999 -999 -999
2009-01-16 08:22:21 51°19.171 2°53.816 -999 -999 -999 -999 -999
2009-01-16 08:22:25 51°19.173 2°53.82 -999 -999 -999 -999 -999
2009-01-16 08:22:30 51°19.175 2°53.825 -999 -999 -999 -999 -999
2009-01-16 08:22:35 51°19.178 2°53.83 -999 -999 -999 -999 -999
2009-01-16 08:22:40 51°19.18 2°53.835 -999 -999 -999 -999 -999
2009-01-16 08:22:45 51°19.183 2°53.84 -999 -999 -999 -999 -999
2009-01-16 08:22:50 51°19.185 2°53.844 -999 -999 -999 -999 -999
2009-01-16 08:22:55 51°19.188 2°53.849 -999 -999 -999 -999 -999
2009-01-16 08:23:00 51°19.191 2°53.854 -999 -999 -999 -999 -999
2009-01-16 08:23:05 51°19.193 2°53.859 -999 -999 -999 -999 -999
2009-01-16 08:23:10 51°19.196 2°53.864 -999 -999 -999 -999 -999
2009-01-16 08:23:15 51°19.199 2°53.869 -999 -999 -999 -999 -999
2009-01-16 08:23:20 51°19.202 2°53.873 -999 -999 -999 -999 -999
2009-01-16 08:23:25 51°19.204 2°53.878 -999 -999 -999 -999 -999
2009-01-16 08:23:30 51°19.207 2°53.883 -999 -999 -999 -999 -999
2009-01-16 08:23:35 51°19.21 2°53.888 -999 -999 -999 -999 -999
2009-01-16 08:23:40 51°19.213 2°53.893 -999 -999 -999 -999 -999
2009-01-16 08:23:45 51°19.215 2°53.898 -999 -999 -999 -999 -999
2009-01-16 08:23:50 51°19.218 2°53.902 -999 -999 -999 -999 -999
2009-01-16 08:23:55 51°19.221 2°53.907 -999 -999 -999 -999 -999
2009-01-16 08:24:00 51°19.224 2°53.912 -999 -999 -999 -999 -999
2009-01-16 08:24:05 51°19.226 2°53.917 -999 -999 -999 -999 -999
2009-01-16 08:24:10 51°19.229 2°53.921 -999 -999 -999 -999 -999
2009-01-16 08:24:15 51°19.232 2°53.926 -999 -999 -999 -999 -999
2009-01-16 08:24:21 51°19.235 2°53.932 -999 -999 -999 -999 -999
2009-01-16 08:24:25 51°19.237 2°53.936 -999 -999 -999 -999 -999
2009-01-16 08:24:30 51°19.24 2°53.94 -999 -999 -999 -999 -999
2009-01-16 08:24:35 51°19.242 2°53.945 -999 -999 -999 -999 -999
2009-01-16 08:24:40 51°19.245 2°53.95 -999 -999 -999 -999 -999
2009-01-16 08:24:45 51°19.248 2°53.955 -999 -999 -999 -999 -999
2009-01-16 08:24:50 51°19.25 2°53.959 -999 -999 -999 -999 -999
2009-01-16 08:24:55 51°19.253 2°53.964 -999 -999 -999 -999 -999
2009-01-16 08:25:00 51°19.255 2°53.969 -999 -999 -999 -999 -999
2009-01-16 08:25:05 51°19.258 2°53.974 -999 -999 -999 -999 -999
2009-01-16 08:25:10 51°19.26 2°53.978 -999 -999 -999 -999 -999
2009-01-16 08:25:15 51°19.263 2°53.983 -999 -999 -999 -999 -999
2009-01-16 08:25:20 51°19.266 2°53.988 -999 -999 -999 -999 -999
2009-01-16 08:25:25 51°19.268 2°53.992 -999 -999 -999 -999 -999
2009-01-16 08:25:30 51°19.271 2°53.997 -999 -999 -999 -999 -999
2009-01-16 08:25:35 51°19.274 2°54.001 -999 -999 -999 -999 -999
2009-01-16 08:25:40 51°19.276 2°54.006 -999 -999 -999 -999 -999
2009-01-16 08:25:45 51°19.279 2°54.011 -999 -999 -999 -999 -999
2009-01-16 08:25:50 51°19.281 2°54.015 -999 -999 -999 -999 -999
2009-01-16 08:25:55 51°19.284 2°54.02 -999 -999 -999 -999 -999
2009-01-16 08:26:00 51°19.286 2°54.024 -999 -999 -999 -999 -999
2009-01-16 08:26:05 51°19.289 2°54.029 -999 -999 -999 -999 -999
2009-01-16 08:26:10 51°19.292 2°54.033 -999 -999 -999 -999 -999
2009-01-16 08:26:15 51°19.294 2°54.038 -999 -999 -999 -999 -999
2009-01-16 08:26:21 51°19.297 2°54.043 -999 -999 -999 -999 -999
2009-01-16 08:26:25 51°19.299 2°54.047 -999 -999 -999 -999 -999
2009-01-16 08:26:30 51°19.302 2°54.051 -999 -999 -999 -999 -999
2009-01-16 08:26:35 51°19.305 2°54.056 -999 -999 -999 -999 -999
2009-01-16 08:26:41 51°19.308 2°54.061 -999 -999 -999 -999 -999
2009-01-16 08:26:45 51°19.31 2°54.064 -999 -999 -999 -999 -999
2009-01-16 08:26:50 51°19.312 2°54.069 -999 -999 -999 -999 -999
2009-01-16 08:26:55 51°19.315 2°54.073 -999 -999 -999 -999 -999
2009-01-16 08:27:00 51°19.317 2°54.078 -999 -999 -999 -999 -999
2009-01-16 08:27:05 51°19.32 2°54.082 -999 -999 -999 -999 -999
2009-01-16 08:27:10 51°19.322 2°54.087 -999 -999 -999 -999 -999
2009-01-16 08:27:15 51°19.325 2°54.091 -999 -999 -999 -999 -999
2009-01-16 08:27:20 51°19.327 2°54.096 -999 -999 -999 -999 -999
2009-01-16 08:27:25 51°19.33 2°54.1 -999 -999 -999 -999 -999
2009-01-16 08:27:30 51°19.332 2°54.105 -999 -999 -999 -999 -999
2009-01-16 08:27:35 51°19.335 2°54.109 -999 -999 -999 -999 -999
2009-01-16 08:27:40 51°19.337 2°54.114 -999 -999 -999 -999 -999
2009-01-16 08:27:45 51°19.34 2°54.118 -999 -999 -999 -999 -999
2009-01-16 08:27:50 51°19.342 2°54.123 -999 -999 -999 -999 -999
2009-01-16 08:27:55 51°19.345 2°54.127 -999 -999 -999 -999 -999
2009-01-16 08:28:00 51°19.347 2°54.131 -999 -999 -999 -999 -999
2009-01-16 08:28:05 51°19.35 2°54.136 -999 -999 -999 -999 -999
2009-01-16 08:28:10 51°19.352 2°54.14 -999 -999 -999 -999 -999
2009-01-16 08:28:15 51°19.355 2°54.145 -999 -999 -999 -999 -999
2009-01-16 08:28:20 51°19.357 2°54.149 -999 -999 -999 -999 -999
2009-01-16 08:28:25 51°19.36 2°54.154 -999 -999 -999 -999 -999
2009-01-16 08:28:30 51°19.362 2°54.158 -999 -999 -999 -999 -999
2009-01-16 08:28:35 51°19.365 2°54.162 -999 -999 -999 -999 -999
2009-01-16 08:28:41 51°19.368 2°54.168 -999 -999 -999 -999 -999
2009-01-16 08:28:45 51°19.37 2°54.171 -999 -999 -999 -999 -999
2009-01-16 08:28:50 51°19.373 2°54.176 -999 -999 -999 -999 -999
2009-01-16 08:28:55 51°19.375 2°54.18 -999 -999 -999 -999 -999
2009-01-16 08:29:01 51°19.378 2°54.185 -999 -999 -999 -999 -999
2009-01-16 08:29:05 51°19.38 2°54.189 -999 -999 -999 -999 -999
2009-01-16 08:29:10 51°19.383 2°54.193 -999 -999 -999 -999 -999
2009-01-16 08:29:15 51°19.386 2°54.198 -999 -999 -999 -999 -999
2009-01-16 08:29:20 51°19.388 2°54.202 -999 -999 -999 -999 -999
2009-01-16 08:29:25 51°19.391 2°54.206 -999 -999 -999 -999 -999
2009-01-16 08:29:30 51°19.394 2°54.21 -999 -999 -999 -999 -999
2009-01-16 08:29:35 51°19.396 2°54.215 -999 -999 -999 -999 -999
2009-01-16 08:29:40 51°19.399 2°54.219 -999 -999 -999 -999 -999
2009-01-16 08:29:45 51°19.401 2°54.224 -999 -999 -999 -999 -999
2009-01-16 08:29:50 51°19.404 2°54.228 -999 -999 -999 -999 -999
2009-01-16 08:29:55 51°19.406 2°54.232 -999 -999 -999 -999 -999
2009-01-16 08:30:00 51°19.409 2°54.236 -999 -999 -999 -999 -999
2009-01-16 08:30:05 51°19.411 2°54.241 -999 -999 -999 -999 -999
2009-01-16 08:30:10 51°19.414 2°54.245 -999 -999 -999 -999 -999
2009-01-16 08:30:15 51°19.416 2°54.249 -999 -999 -999 -999 -999
2009-01-16 08:30:20 51°19.418 2°54.254 -999 -999 -999 -999 -999
2009-01-16 08:30:25 51°19.421 2°54.258 -999 -999 -999 -999 -999
2009-01-16 08:30:30 51°19.423 2°54.262 -999 -999 -999 -999 -999
2009-01-16 08:30:35 51°19.426 2°54.267 -999 -999 -999 -999 -999
2009-01-16 08:30:41 51°19.429 2°54.272 -999 -999 -999 -999 -999
2009-01-16 08:30:45 51°19.431 2°54.275 -999 -999 -999 -999 -999
2009-01-16 08:30:50 51°19.433 2°54.279 -999 -999 -999 -999 -999
2009-01-16 08:30:55 51°19.436 2°54.284 -999 -999 -999 -999 -999
2009-01-16 08:31:00 51°19.438 2°54.288 -999 -999 -999 -999 -999
2009-01-16 08:31:05 51°19.441 2°54.292 -999 -999 -999 -999 -999
2009-01-16 08:31:10 51°19.443 2°54.297 -999 -999 -999 -999 -999
2009-01-16 08:31:15 51°19.446 2°54.301 -999 -999 -999 -999 -999
2009-01-16 08:31:21 51°19.449 2°54.306 -999 -999 -999 -999 -999
2009-01-16 08:31:25 51°19.451 2°54.309 -999 -999 -999 -999 -999
2009-01-16 08:31:30 51°19.453 2°54.314 -999 -999 -999 -999 -999
2009-01-16 08:31:35 51°19.456 2°54.318 -999 -999 -999 -999 -999
2009-01-16 08:31:41 51°19.459 2°54.323 -999 -999 -999 -999 -999
2009-01-16 08:31:45 51°19.461 2°54.327 -999 -999 -999 -999 -999
2009-01-16 08:31:50 51°19.464 2°54.331 -999 -999 -999 -999 -999
2009-01-16 08:31:55 51°19.466 2°54.335 -999 -999 -999 -999 -999
2009-01-16 08:32:00 51°19.469 2°54.339 -999 -999 -999 -999 -999
2009-01-16 08:32:05 51°19.472 2°54.344 -999 -999 -999 -999 -999
2009-01-16 08:32:10 51°19.474 2°54.348 -999 -999 -999 -999 -999
2009-01-16 08:32:15 51°19.477 2°54.353 -999 -999 -999 -999 -999
2009-01-16 08:32:20 51°19.479 2°54.357 -999 -999 -999 -999 -999
2009-01-16 08:32:25 51°19.482 2°54.361 -999 -999 -999 -999 -999
2009-01-16 08:32:30 51°19.485 2°54.366 -999 -999 -999 -999 -999
2009-01-16 08:32:35 51°19.487 2°54.371 -999 -999 -999 -999 -999
2009-01-16 08:32:40 51°19.49 2°54.375 -999 -999 -999 -999 -999
2009-01-16 08:32:45 51°19.492 2°54.38 -999 -999 -999 -999 -999
2009-01-16 08:32:50 51°19.495 2°54.384 -999 -999 -999 -999 -999
2009-01-16 08:32:55 51°19.498 2°54.389 -999 -999 -999 -999 -999
2009-01-16 08:33:00 51°19.501 2°54.393 -999 -999 -999 -999 -999
2009-01-16 08:33:05 51°19.503 2°54.398 -999 -999 -999 -999 -999
2009-01-16 08:33:10 51°19.506 2°54.403 -999 -999 -999 -999 -999
2009-01-16 08:33:15 51°19.509 2°54.408 -999 -999 -999 -999 -999
2009-01-16 08:33:21 51°19.512 2°54.413 -999 -999 -999 -999 -999
2009-01-16 08:33:25 51°19.514 2°54.417 -999 -999 -999 -999 -999
2009-01-16 08:33:30 51°19.517 2°54.422 -999 -999 -999 -999 -999
2009-01-16 08:33:35 51°19.52 2°54.427 -999 -999 -999 -999 -999
2009-01-16 08:33:41 51°19.523 2°54.432 -999 -999 -999 -999 -999
2009-01-16 08:33:45 51°19.525 2°54.436 -999 -999 -999 -999 -999
2009-01-16 08:33:50 51°19.528 2°54.441 -999 -999 -999 -999 -999
2009-01-16 08:33:55 51°19.53 2°54.446 -999 -999 -999 -999 -999
2009-01-16 08:34:00 51°19.533 2°54.45 -999 -999 -999 -999 -999
2009-01-16 08:34:05 51°19.536 2°54.455 -999 -999 -999 -999 -999
2009-01-16 08:34:10 51°19.538 2°54.46 -999 -999 -999 -999 -999
2009-01-16 08:34:15 51°19.541 2°54.465 -999 -999 -999 -999 -999
2009-01-16 08:34:20 51°19.544 2°54.47 -999 -999 -999 -999 -999
2009-01-16 08:34:25 51°19.546 2°54.475 -999 -999 -999 -999 -999
2009-01-16 08:34:30 51°19.549 2°54.48 -999 -999 -999 -999 -999
2009-01-16 08:34:35 51°19.551 2°54.484 -999 -999 -999 -999 -999
2009-01-16 08:34:40 51°19.554 2°54.489 -999 -999 -999 -999 -999
2009-01-16 08:34:45 51°19.557 2°54.494 -999 -999 -999 -999 -999
2009-01-16 08:34:50 51°19.56 2°54.499 -999 -999 -999 -999 -999
2009-01-16 08:34:55 51°19.562 2°54.504 -999 -999 -999 -999 -999
2009-01-16 08:35:00 51°19.565 2°54.509 -999 -999 -999 -999 -999
2009-01-16 08:35:05 51°19.567 2°54.514 -999 -999 -999 -999 -999
2009-01-16 08:35:10 51°19.57 2°54.519 -999 -999 -999 -999 -999
2009-01-16 08:35:15 51°19.573 2°54.524 -999 -999 -999 -999 -999
2009-01-16 08:35:20 51°19.575 2°54.528 -999 -999 -999 -999 -999
2009-01-16 08:35:25 51°19.578 2°54.533 -999 -999 -999 -999 -999
2009-01-16 08:35:30 51°19.581 2°54.538 -999 -999 -999 -999 -999
2009-01-16 08:35:35 51°19.584 2°54.543 -999 -999 -999 -999 -999
2009-01-16 08:35:40 51°19.587 2°54.548 -999 -999 -999 -999 -999
2009-01-16 08:35:45 51°19.589 2°54.552 -999 -999 -999 -999 -999
2009-01-16 08:35:50 51°19.592 2°54.557 -999 -999 -999 -999 -999
2009-01-16 08:35:55 51°19.595 2°54.562 -999 -999 -999 -999 -999
2009-01-16 08:36:01 51°19.598 2°54.568 -999 -999 -999 -999 -999
2009-01-16 08:36:05 51°19.601 2°54.572 -999 -999 -999 -999 -999
2009-01-16 08:36:10 51°19.604 2°54.577 -999 -999 -999 -999 -999
2009-01-16 08:36:15 51°19.606 2°54.581 -999 -999 -999 -999 -999
2009-01-16 08:36:20 51°19.609 2°54.586 -999 -999 -999 -999 -999
2009-01-16 08:36:25 51°19.612 2°54.591 -999 -999 -999 -999 -999
2009-01-16 08:36:30 51°19.614 2°54.596 -999 -999 -999 -999 -999
2009-01-16 08:36:35 51°19.617 2°54.6 -999 -999 -999 -999 -999
2009-01-16 08:36:40 51°19.62 2°54.605 -999 -999 -999 -999 -999
2009-01-16 08:36:45 51°19.622 2°54.61 -999 -999 -999 -999 -999
2009-01-16 08:36:50 51°19.625 2°54.615 -999 -999 -999 -999 -999
2009-01-16 08:36:55 51°19.628 2°54.62 -999 -999 -999 -999 -999
2009-01-16 08:37:00 51°19.63 2°54.624 -999 -999 -999 -999 -999
2009-01-16 08:37:05 51°19.633 2°54.629 -999 -999 -999 -999 -999
2009-01-16 08:37:10 51°19.636 2°54.634 -999 -999 -999 -999 -999
2009-01-16 08:37:15 51°19.639 2°54.639 -999 -999 -999 -999 -999
2009-01-16 08:37:20 51°19.641 2°54.644 -999 -999 -999 -999 -999
2009-01-16 08:37:25 51°19.644 2°54.649 -999 -999 -999 -999 -999
2009-01-16 08:37:30 51°19.647 2°54.653 -999 -999 -999 -999 -999
2009-01-16 08:37:35 51°19.649 2°54.658 -999 -999 -999 -999 -999
2009-01-16 08:37:41 51°19.653 2°54.664 -999 -999 -999 -999 -999
2009-01-16 08:37:45 51°19.655 2°54.668 -999 -999 -999 -999 -999
2009-01-16 08:37:50 51°19.657 2°54.673 -999 -999 -999 -999 -999
2009-01-16 08:37:55 51°19.66 2°54.678 -999 -999 -999 -999 -999
2009-01-16 08:38:01 51°19.663 2°54.683 -999 -999 -999 -999 -999
2009-01-16 08:38:05 51°19.665 2°54.687 -999 -999 -999 -999 -999
2009-01-16 08:38:10 51°19.667 2°54.692 -999 -999 -999 -999 -999
2009-01-16 08:38:15 51°19.67 2°54.697 -999 -999 -999 -999 -999
2009-01-16 08:38:21 51°19.673 2°54.703 -999 -999 -999 -999 -999
2009-01-16 08:38:25 51°19.675 2°54.707 -999 -999 -999 -999 -999
2009-01-16 08:38:30 51°19.677 2°54.712 -999 -999 -999 -999 -999
2009-01-16 08:38:35 51°19.68 2°54.716 -999 -999 -999 -999 -999
2009-01-16 08:38:40 51°19.683 2°54.721 -999 -999 -999 -999 -999
2009-01-16 08:38:45 51°19.686 2°54.726 -999 -999 -999 -999 -999
2009-01-16 08:38:50 51°19.688 2°54.731 -999 -999 -999 -999 -999
2009-01-16 08:38:55 51°19.691 2°54.735 -999 -999 -999 -999 -999
2009-01-16 08:39:00 51°19.693 2°54.74 -999 -999 -999 -999 -999
2009-01-16 08:39:05 51°19.696 2°54.745 -999 -999 -999 -999 -999
2009-01-16 08:39:10 51°19.698 2°54.75 -999 -999 -999 -999 -999
2009-01-16 08:39:15 51°19.701 2°54.754 -999 -999 -999 -999 -999
2009-01-16 08:39:20 51°19.704 2°54.759 -999 -999 -999 -999 -999
2009-01-16 08:39:25 51°19.706 2°54.764 -999 -999 -999 -999 -999
2009-01-16 08:39:30 51°19.709 2°54.768 -999 -999 -999 -999 -999
2009-01-16 08:39:35 51°19.712 2°54.773 -999 -999 -999 -999 -999
2009-01-16 08:39:40 51°19.714 2°54.777 -999 -999 -999 -999 -999
2009-01-16 08:39:45 51°19.717 2°54.782 -999 -999 -999 -999 -999
2009-01-16 08:39:50 51°19.719 2°54.787 -999 -999 -999 -999 -999
2009-01-16 08:39:55 51°19.722 2°54.791 -999 -999 -999 -999 -999
2009-01-16 08:40:00 51°19.724 2°54.796 -999 -999 -999 -999 -999
2009-01-16 08:40:05 51°19.727 2°54.801 -999 -999 -999 -999 -999
2009-01-16 08:40:10 51°19.73 2°54.805 -999 -999 -999 -999 -999
2009-01-16 08:40:15 51°19.732 2°54.81 -999 -999 -999 -999 -999
2009-01-16 08:40:21 51°19.735 2°54.816 -999 -999 -999 -999 -999
2009-01-16 08:40:25 51°19.737 2°54.819 -999 -999 -999 -999 -999
2009-01-16 08:40:30 51°19.74 2°54.824 -999 -999 -999 -999 -999
2009-01-16 08:40:35 51°19.742 2°54.828 -999 -999 -999 -999 -999
2009-01-16 08:40:41 51°19.746 2°54.834 -999 -999 -999 -999 -999
2009-01-16 08:40:45 51°19.748 2°54.838 -999 -999 -999 -999 -999
2009-01-16 08:40:50 51°19.75 2°54.842 -999 -999 -999 -999 -999
2009-01-16 08:40:55 51°19.753 2°54.847 -999 -999 -999 -999 -999
2009-01-16 08:41:00 51°19.755 2°54.852 -999 -999 -999 -999 -999
2009-01-16 08:41:05 51°19.758 2°54.856 -999 -999 -999 -999 -999
2009-01-16 08:41:10 51°19.76 2°54.861 -999 -999 -999 -999 -999
2009-01-16 08:41:15 51°19.763 2°54.866 -999 -999 -999 -999 -999
2009-01-16 08:41:20 51°19.766 2°54.87 -999 -999 -999 -999 -999
2009-01-16 08:41:25 51°19.768 2°54.875 -999 -999 -999 -999 -999
2009-01-16 08:41:30 51°19.771 2°54.88 -999 -999 -999 -999 -999
2009-01-16 08:41:35 51°19.773 2°54.884 -999 -999 -999 -999 -999
2009-01-16 08:41:40 51°19.776 2°54.889 -999 -999 -999 -999 -999
2009-01-16 08:41:45 51°19.778 2°54.894 -999 -999 -999 -999 -999
2009-01-16 08:41:50 51°19.781 2°54.898 -999 -999 -999 -999 -999
2009-01-16 08:41:55 51°19.783 2°54.903 -999 -999 -999 -999 -999
2009-01-16 08:42:01 51°19.786 2°54.909 -999 -999 -999 -999 -999
2009-01-16 08:42:05 51°19.788 2°54.912 -999 -999 -999 -999 -999
2009-01-16 08:42:10 51°19.791 2°54.917 -999 -999 -999 -999 -999
2009-01-16 08:42:15 51°19.794 2°54.921 -999 -999 -999 -999 -999
2009-01-16 08:42:21 51°19.797 2°54.927 -999 -999 -999 -999 -999
2009-01-16 08:42:25 51°19.799 2°54.931 -999 -999 -999 -999 -999
2009-01-16 08:42:30 51°19.801 2°54.936 -999 -999 -999 -999 -999
2009-01-16 08:42:35 51°19.804 2°54.94 -999 -999 -999 -999 -999
2009-01-16 08:42:41 51°19.807 2°54.946 -999 -999 -999 -999 -999
2009-01-16 08:42:45 51°19.809 2°54.95 -999 -999 -999 -999 -999
2009-01-16 08:42:50 51°19.812 2°54.954 -999 -999 -999 -999 -999
2009-01-16 08:42:55 51°19.814 2°54.959 -999 -999 -999 -999 -999
2009-01-16 08:43:01 51°19.817 2°54.965 -999 -999 -999 -999 -999
2009-01-16 08:43:05 51°19.819 2°54.968 -999 -999 -999 -999 -999
2009-01-16 08:43:10 51°19.822 2°54.973 -999 -999 -999 -999 -999
2009-01-16 08:43:15 51°19.824 2°54.978 -999 -999 -999 -999 -999
2009-01-16 08:43:20 51°19.827 2°54.982 -999 -999 -999 -999 -999
2009-01-16 08:43:25 51°19.83 2°54.987 -999 -999 -999 -999 -999
2009-01-16 08:43:30 51°19.832 2°54.992 -999 -999 -999 -999 -999
2009-01-16 08:43:35 51°19.835 2°54.997 -999 -999 -999 -999 -999
2009-01-16 08:43:40 51°19.837 2°55.001 -999 -999 -999 -999 -999
2009-01-16 08:43:45 51°19.84 2°55.006 -999 -999 -999 -999 -999
2009-01-16 08:43:50 51°19.842 2°55.011 -999 -999 -999 -999 -999
2009-01-16 08:43:55 51°19.845 2°55.015 -999 -999 -999 -999 -999
2009-01-16 08:44:00 51°19.848 2°55.02 -999 -999 -999 -999 -999
2009-01-16 08:44:05 51°19.85 2°55.025 -999 -999 -999 -999 -999
2009-01-16 08:44:10 51°19.853 2°55.029 -999 -999 -999 -999 -999
2009-01-16 08:44:15 51°19.855 2°55.034 -999 -999 -999 -999 -999
2009-01-16 08:44:20 51°19.858 2°55.039 -999 -999 -999 -999 -999
2009-01-16 08:44:25 51°19.86 2°55.044 -999 -999 -999 -999 -999
2009-01-16 08:44:30 51°19.863 2°55.048 -999 -999 -999 -999 -999
2009-01-16 08:44:35 51°19.865 2°55.053 -999 -999 -999 -999 -999
2009-01-16 08:44:41 51°19.868 2°55.059 -999 -999 -999 -999 -999
2009-01-16 08:44:45 51°19.87 2°55.062 -999 -999 -999 -999 -999
2009-01-16 08:44:50 51°19.873 2°55.067 -999 -999 -999 -999 -999
2009-01-16 08:44:55 51°19.875 2°55.072 -999 -999 -999 -999 -999
2009-01-16 08:45:01 51°19.878 2°55.077 -999 -999 -999 -999 -999
2009-01-16 08:45:05 51°19.88 2°55.081 -999 -999 -999 -999 -999
2009-01-16 08:45:10 51°19.883 2°55.086 -999 -999 -999 -999 -999
2009-01-16 08:45:15 51°19.885 2°55.091 -999 -999 -999 -999 -999
2009-01-16 08:45:21 51°19.888 2°55.096 -999 -999 -999 -999 -999
2009-01-16 08:45:25 51°19.89 2°55.1 -999 -999 -999 -999 -999
2009-01-16 08:45:30 51°19.893 2°55.105 -999 -999 -999 -999 -999
2009-01-16 08:45:35 51°19.896 2°55.109 -999 -999 -999 -999 -999
2009-01-16 08:45:40 51°19.898 2°55.114 -999 -999 -999 -999 -999
2009-01-16 08:45:45 51°19.901 2°55.119 -999 -999 -999 -999 -999
2009-01-16 08:45:50 51°19.903 2°55.123 -999 -999 -999 -999 -999
2009-01-16 08:45:55 51°19.906 2°55.128 -999 -999 -999 -999 -999
2009-01-16 08:46:00 51°19.909 2°55.133 -999 -999 -999 -999 -999
2009-01-16 08:46:05 51°19.911 2°55.137 -999 -999 -999 -999 -999
2009-01-16 08:46:10 51°19.914 2°55.142 -999 -999 -999 -999 -999
2009-01-16 08:46:15 51°19.916 2°55.147 -999 -999 -999 -999 -999
2009-01-16 08:46:21 51°19.919 2°55.152 -999 -999 -999 -999 -999
2009-01-16 08:46:25 51°19.921 2°55.156 -999 -999 -999 -999 -999
2009-01-16 08:46:30 51°19.924 2°55.161 -999 -999 -999 -999 -999
2009-01-16 08:46:35 51°19.926 2°55.166 -999 -999 -999 -999 -999
2009-01-16 08:46:41 51°19.929 2°55.171 -999 -999 -999 -999 -999
2009-01-16 08:46:45 51°19.932 2°55.175 -999 -999 -999 -999 -999
2009-01-16 08:46:50 51°19.934 2°55.18 -999 -999 -999 -999 -999
2009-01-16 08:46:55 51°19.937 2°55.184 -999 -999 -999 -999 -999
2009-01-16 08:47:00 51°19.939 2°55.189 -999 -999 -999 -999 -999
2009-01-16 08:47:05 51°19.942 2°55.194 -999 -999 -999 -999 -999
2009-01-16 08:47:10 51°19.944 2°55.198 -999 -999 -999 -999 -999
2009-01-16 08:47:15 51°19.947 2°55.203 -999 -999 -999 -999 -999
2009-01-16 08:47:21 51°19.95 2°55.209 -999 -999 -999 -999 -999
2009-01-16 08:47:25 51°19.952 2°55.212 -999 -999 -999 -999 -999
2009-01-16 08:47:30 51°19.954 2°55.217 -999 -999 -999 -999 -999
2009-01-16 08:47:35 51°19.957 2°55.221 -999 -999 -999 -999 -999
2009-01-16 08:47:41 51°19.96 2°55.227 -999 -999 -999 -999 -999
2009-01-16 08:47:45 51°19.962 2°55.231 -999 -999 -999 -999 -999
2009-01-16 08:47:50 51°19.965 2°55.235 -999 -999 -999 -999 -999
2009-01-16 08:47:55 51°19.968 2°55.24 -999 -999 -999 -999 -999
2009-01-16 08:48:00 51°19.97 2°55.245 -999 -999 -999 -999 -999
2009-01-16 08:48:05 51°19.973 2°55.249 -999 -999 -999 -999 -999
2009-01-16 08:48:10 51°19.975 2°55.254 -999 -999 -999 -999 -999
2009-01-16 08:48:15 51°19.978 2°55.259 -999 -999 -999 -999 -999
2009-01-16 08:48:20 51°19.98 2°55.263 -999 -999 -999 -999 -999
2009-01-16 08:48:25 51°19.983 2°55.268 -999 -999 -999 -999 -999
2009-01-16 08:48:30 51°19.985 2°55.273 -999 -999 -999 -999 -999
2009-01-16 08:48:35 51°19.988 2°55.277 -999 -999 -999 -999 -999
2009-01-16 08:48:40 51°19.99 2°55.282 -999 -999 -999 -999 -999
2009-01-16 08:48:45 51°19.992 2°55.287 -999 -999 -999 -999 -999
2009-01-16 08:48:50 51°19.995 2°55.291 -999 -999 -999 -999 -999
2009-01-16 08:48:55 51°19.998 2°55.296 -999 -999 -999 -999 -999
2009-01-16 08:49:01 51°20.001 2°55.302 -999 -999 -999 -999 -999
2009-01-16 08:49:05 51°20.003 2°55.305 -999 -999 -999 -999 -999
2009-01-16 08:49:10 51°20.005 2°55.31 -999 -999 -999 -999 -999
2009-01-16 08:49:15 51°20.007 2°55.314 -999 -999 -999 -999 -999
2009-01-16 08:49:21 51°20.01 2°55.32 -999 -999 -999 -999 -999
2009-01-16 08:49:25 51°20.012 2°55.324 -999 -999 -999 -999 -999
2009-01-16 08:49:30 51°20.015 2°55.329 -999 -999 -999 -999 -999
2009-01-16 08:49:35 51°20.017 2°55.333 -999 -999 -999 -999 -999
2009-01-16 08:49:41 51°20.02 2°55.339 -999 -999 -999 -999 -999
2009-01-16 08:49:45 51°20.022 2°55.343 -999 -999 -999 -999 -999
2009-01-16 08:49:50 51°20.025 2°55.347 -999 -999 -999 -999 -999
2009-01-16 08:49:55 51°20.027 2°55.352 -999 -999 -999 -999 -999
2009-01-16 08:50:01 51°20.03 2°55.358 -999 -999 -999 -999 -999
2009-01-16 08:50:05 51°20.032 2°55.362 -999 -999 -999 -999 -999
2009-01-16 08:50:10 51°20.034 2°55.366 -999 -999 -999 -999 -999
2009-01-16 08:50:15 51°20.036 2°55.371 -999 -999 -999 -999 -999
2009-01-16 08:50:20 51°20.038 2°55.376 -999 -999 -999 -999 -999
2009-01-16 08:50:25 51°20.04 2°55.381 -999 -999 -999 -999 -999
2009-01-16 08:50:30 51°20.042 2°55.385 -999 -999 -999 -999 -999
2009-01-16 08:50:35 51°20.044 2°55.39 -999 -999 -999 -999 -999
2009-01-16 08:50:40 51°20.046 2°55.395 -999 -999 -999 -999 -999
2009-01-16 08:50:45 51°20.048 2°55.4 -999 -999 -999 -999 -999
2009-01-16 08:50:50 51°20.05 2°55.404 -999 -999 -999 -999 -999
2009-01-16 08:50:55 51°20.052 2°55.409 -999 -999 -999 -999 -999
2009-01-16 08:51:00 51°20.054 2°55.414 -999 -999 -999 -999 -999
2009-01-16 08:51:05 51°20.055 2°55.419 -999 -999 -999 -999 -999
2009-01-16 08:51:10 51°20.057 2°55.423 -999 -999 -999 -999 -999
2009-01-16 08:51:15 51°20.058 2°55.428 -999 -999 -999 -999 -999
2009-01-16 08:51:20 51°20.06 2°55.433 -999 -999 -999 -999 -999
2009-01-16 08:51:25 51°20.061 2°55.437 -999 -999 -999 -999 -999
2009-01-16 08:51:30 51°20.062 2°55.442 -999 -999 -999 -999 -999
2009-01-16 08:51:35 51°20.063 2°55.447 -999 -999 -999 -999 -999
2009-01-16 08:51:41 51°20.064 2°55.453 -999 -999 -999 -999 -999
2009-01-16 08:51:45 51°20.065 2°55.457 -999 -999 -999 -999 -999
2009-01-16 08:51:50 51°20.066 2°55.461 -999 -999 -999 -999 -999
2009-01-16 08:51:55 51°20.067 2°55.466 -999 -999 -999 -999 -999
2009-01-16 08:52:00 51°20.067 2°55.471 -999 -999 -999 -999 -999
2009-01-16 08:52:05 51°20.068 2°55.476 -999 -999 -999 -999 -999
2009-01-16 08:52:10 51°20.068 2°55.481 -999 -999 -999 -999 -999
2009-01-16 08:52:15 51°20.069 2°55.487 -999 -999 -999 -999 -999
2009-01-16 08:52:20 51°20.069 2°55.492 -999 -999 -999 -999 -999
2009-01-16 08:52:25 51°20.069 2°55.497 -999 -999 -999 -999 -999
2009-01-16 08:52:30 51°20.068 2°55.503 -999 -999 -999 -999 -999
2009-01-16 08:52:35 51°20.068 2°55.507 -999 -999 -999 -999 -999
2009-01-16 08:52:40 51°20.067 2°55.512 -999 -999 -999 -999 -999
2009-01-16 08:52:45 51°20.065 2°55.517 -999 -999 -999 -999 -999
2009-01-16 08:52:50 51°20.064 2°55.521 -999 -999 -999 -999 -999
2009-01-16 08:52:55 51°20.062 2°55.525 -999 -999 -999 -999 -999
2009-01-16 08:53:00 51°20.06 2°55.528 -999 -999 -999 -999 -999
2009-01-16 08:53:05 51°20.058 2°55.531 -999 -999 -999 -999 -999
2009-01-16 08:53:10 51°20.057 2°55.533 -999 -999 -999 -999 -999
2009-01-16 08:53:15 51°20.055 2°55.535 -999 -999 -999 -999 -999
2009-01-16 08:53:20 51°20.054 2°55.537 -999 -999 -999 -999 -999
2009-01-16 08:53:25 51°20.053 2°55.539 -999 -999 -999 -999 -999
2009-01-16 08:53:30 51°20.051 2°55.541 -999 -999 -999 -999 -999
2009-01-16 08:53:35 51°20.05 2°55.542 -999 -999 -999 -999 -999
2009-01-16 08:53:41 51°20.049 2°55.544 -999 -999 -999 -999 -999
2009-01-16 08:53:45 51°20.048 2°55.545 -999 -999 -999 -999 -999
2009-01-16 08:53:50 51°20.047 2°55.546 -999 -999 -999 -999 -999
2009-01-16 08:53:55 51°20.046 2°55.547 -999 -999 -999 -999 -999
2009-01-16 08:54:01 51°20.046 2°55.548 -999 -999 -999 -999 -999
2009-01-16 08:54:05 51°20.045 2°55.549 -999 -999 -999 -999 -999
2009-01-16 08:54:10 51°20.044 2°55.549 -999 -999 -999 -999 -999
2009-01-16 08:54:15 51°20.044 2°55.55 -999 -999 -999 -999 -999
2009-01-16 08:54:21 51°20.044 2°55.551 -999 -999 -999 -999 -999
2009-01-16 08:54:25 51°20.043 2°55.551 -999 -999 -999 -999 -999